This is the latest recevied weather packets stored in our database for station/object 9W2SSS-1. If no packets are shown the sender has not sent any weather packets the latest 10 day(s).
| Time | Temp. | Humidity | Pressure | Rain* | Wind** | Luminosity | Snow |
|---|---|---|---|---|---|---|---|
| 1778012611 | 28.89° C | 71% | 1007.1 hPa | - | - | - | - |
| 1778011411 | 28.89° C | 72% | 1007 hPa | - | - | - | - |
| 1778010210 | 28.89° C | 71% | 1007.3 hPa | - | - | - | - |
| 1778009010 | 28.89° C | 71% | 1007.4 hPa | - | - | - | - |
| 1778007809 | 28.89° C | 70% | 1007.5 hPa | - | - | - | - |
| 1778006609 | 28.89° C | 70% | 1007.6 hPa | - | - | - | - |
| 1778005409 | 28.89° C | 70% | 1007.9 hPa | - | - | - | - |
| 1778004209 | 28.89° C | 68% | 1008 hPa | - | - | - | - |
| 1778003008 | 28.89° C | 67% | 1008.3 hPa | - | - | - | - |
| 1778001807 | 28.33° C | 65% | 1008.5 hPa | - | - | - | - |
| 1778000607 | 28.89° C | 66% | 1008.5 hPa | - | - | - | - |
| 1777999407 | 28.89° C | 57% | 1008.9 hPa | - | - | - | - |
| 1777998207 | 28.89° C | 58% | 1008.8 hPa | - | - | - | - |
| 1777997007 | 29.44° C | 59% | 1008.8 hPa | - | - | - | - |
| 1777995807 | 30° C | 68% | 1008.8 hPa | - | - | - | - |
| 1777994607 | 30° C | 67% | 1008.8 hPa | - | - | - | - |
| 1777993407 | 30.56° C | 67% | 1008.6 hPa | - | - | - | - |
| 1777992207 | 30.56° C | 66% | 1008.5 hPa | - | - | - | - |
| 1777991007 | 30° C | 67% | 1008.4 hPa | - | - | - | - |
| 1777989807 | 30° C | 66% | 1008.2 hPa | - | - | - | - |
| 1777988607 | 30° C | 66% | 1007.9 hPa | - | - | - | - |
| 1777987406 | 30° C | 66% | 1007.9 hPa | - | - | - | - |
| 1777986206 | 30° C | 65% | 1008 hPa | - | - | - | - |
| 1777985006 | 30° C | 64% | 1007.9 hPa | - | - | - | - |
| 1777983806 | 30° C | 63% | 1007.4 hPa | - | - | - | - |
* Rain since midnight (hover to see other rain measurements)
** Current wind speed in m/s (hover to see current wind gust speed)